Time,TemperatureF,DewpointF,PressureIn,WindDirection,WindDirectionDegrees,WindSpeedMPH,WindSpeedGustMPH,Humidity,HourlyPrecipIn,Conditions,Clouds,dailyrainin,SoftwareType,DateUTC
2013-03-27 00:00:00,29.4,26.8,30.05,North,349,4.0,6.0,90,0.00,,---,0.17,VWS V14.01,2013-03-27 04:00:00,
2013-03-27 00:06:00,29.4,26.8,30.04,North,360,5.0,6.0,90,0.00,,---,0.00,VWS V14.01,2013-03-27 04:06:00,
2013-03-27 00:11:00,29.3,26.7,30.05,North,360,5.0,6.0,90,0.00,,---,0.00,VWS V14.01,2013-03-27 04:11:00,
2013-03-27 00:16:00,29.2,26.6,30.05,North,360,3.0,6.0,90,0.00,,---,0.00,VWS V14.01,2013-03-27 04:16:00,
2013-03-27 00:21:00,29.2,26.6,30.05,North,11,4.0,7.0,90,0.00,,---,0.00,VWS V14.01,2013-03-27 04:21:00,
2013-03-27 00:26:00,29.1,26.5,30.05,North,360,7.0,8.0,90,0.00,,---,0.00,VWS V14.01,2013-03-27 04:26:00,
2013-03-27 00:31:00,29.1,26.3,30.05,NNW,338,4.0,5.0,89,0.00,,---,0.00,VWS V14.01,2013-03-27 04:31:00,
2013-03-27 00:37:00,29.0,26.4,30.05,NNE,28,3.0,6.0,90,0.00,,---,0.00,VWS V14.01,2013-03-27 04:37:00,
2013-03-27 00:42:00,29.0,26.4,30.05,NNE,15,3.0,4.0,90,0.00,,---,0.00,VWS V14.01,2013-03-27 04:42:00,
2013-03-27 00:47:00,29.1,26.5,30.05,East,89,3.0,7.0,90,0.00,,---,0.00,VWS V14.01,2013-03-27 04:47:00,
2013-03-27 00:52:00,29.1,26.5,30.04,North,350,4.0,5.0,90,0.00,,---,0.00,VWS V14.01,2013-03-27 04:52:00,
2013-03-27 00:57:00,29.1,26.5,30.05,NNE,13,4.0,7.0,90,0.00,,---,0.00,VWS V14.01,2013-03-27 04:57:00,
2013-03-27 01:02:00,29.2,26.6,30.05,North,355,4.0,6.0,90,0.00,,---,0.00,VWS V14.01,2013-03-27 05:02:00,
2013-03-27 01:07:00,29.1,26.5,30.05,NNW,336,4.0,6.0,90,0.00,,---,0.00,VWS V14.01,2013-03-27 05:07:00,
2013-03-27 01:12:00,29.0,26.4,30.04,NNE,30,3.0,9.0,90,0.00,,---,0.00,VWS V14.01,2013-03-27 05:12:00,
2013-03-27 01:17:00,29.1,26.5,30.04,East,80,7.0,9.0,90,0.00,,---,0.00,VWS V14.01,2013-03-27 05:17:00,
2013-03-27 01:22:00,29.1,26.5,30.04,NNW,339,5.0,7.0,90,0.00,,---,0.00,VWS V14.01,2013-03-27 05:22:00,
2013-03-27 01:27:00,29.1,26.5,30.04,North,360,3.0,8.0,90,0.00,,---,0.00,VWS V14.01,2013-03-27 05:27:00,
2013-03-27 01:32:00,28.9,26.3,30.04,NNW,342,4.0,9.0,90,0.00,,---,0.00,VWS V14.01,2013-03-27 05:32:00,
2013-03-27 01:37:00,28.8,26.2,30.03,NNE,14,4.0,9.0,90,0.00,,---,0.00,VWS V14.01,2013-03-27 05:37:00,
2013-03-27 01:42:00,28.8,26.2,30.03,NNE,23,6.0,8.0,90,0.00,,---,0.00,VWS V14.01,2013-03-27 05:42:00,
2013-03-27 01:48:00,28.9,26.1,30.03,NNE,32,5.0,13.0,89,0.00,,---,0.00,VWS V14.01,2013-03-27 05:48:00,
2013-03-27 01:53:00,28.8,26.0,30.03,NNE,19,3.0,7.0,89,0.00,,---,0.00,VWS V14.01,2013-03-27 05:53:00,
2013-03-27 01:58:00,28.7,25.9,30.02,North,355,4.0,10.0,89,0.00,,---,0.00,VWS V14.01,2013-03-27 05:58:00,
2013-03-27 02:03:00,28.7,25.9,30.02,ENE,73,2.0,8.0,89,0.00,,---,0.00,VWS V14.01,2013-03-27 06:03:00,
2013-03-27 02:08:00,28.7,25.9,30.02,North,355,6.0,10.0,89,0.00,,---,0.00,VWS V14.01,2013-03-27 06:08:00,
2013-03-27 02:13:00,28.5,25.7,30.02,NNE,17,2.0,5.0,89,0.00,,---,0.00,VWS V14.01,2013-03-27 06:13:00,
2013-03-27 02:18:00,28.3,25.8,30.02,NNW,346,8.0,9.0,90,0.00,,---,0.00,VWS V14.01,2013-03-27 06:18:00,
2013-03-27 02:23:00,28.4,25.9,30.03,ENE,59,3.0,7.0,90,0.00,,---,0.00,VWS V14.01,2013-03-27 06:23:00,
2013-03-27 02:28:00,28.2,25.6,30.03,North,360,4.0,10.0,90,0.00,,---,0.00,VWS V14.01,2013-03-27 06:28:00,
2013-03-27 02:33:00,28.2,25.6,30.03,NNE,15,4.0,9.0,90,0.00,,---,0.00,VWS V14.01,2013-03-27 06:33:00,
2013-03-27 02:38:00,28.1,25.5,30.02,NW,319,5.0,10.0,90,0.00,,---,0.00,VWS V14.01,2013-03-27 06:38:00,
2013-03-27 02:43:00,28.1,25.5,30.03,NNW,334,3.0,9.0,90,0.00,,---,0.00,VWS V14.01,2013-03-27 06:43:00,
2013-03-27 02:48:00,28.2,25.4,30.03,North,355,6.0,10.0,89,0.00,,---,0.00,VWS V14.01,2013-03-27 06:48:00,
2013-03-27 02:53:00,28.1,25.3,30.03,WNW,288,2.0,7.0,89,0.00,,---,0.00,VWS V14.01,2013-03-27 06:53:00,
2013-03-27 02:58:00,28.1,25.5,30.03,NNW,336,6.0,8.0,90,0.00,,---,0.00,VWS V14.01,2013-03-27 06:58:00,
2013-03-27 03:03:00,28.1,25.5,30.04,NNW,340,6.0,8.0,90,0.00,,---,0.00,VWS V14.01,2013-03-27 07:03:00,
2013-03-27 03:08:00,28.2,25.9,30.03,NW,304,7.0,9.0,91,0.00,,---,0.00,VWS V14.01,2013-03-27 07:08:00,
2013-03-27 03:13:00,28.3,26.0,30.03,NE,51,1.0,7.0,91,0.00,,---,0.00,VWS V14.01,2013-03-27 07:13:00,
2013-03-27 03:18:00,28.3,26.0,30.03,NNE,20,5.0,7.0,91,0.00,,---,0.00,VWS V14.01,2013-03-27 07:18:00,
2013-03-27 03:24:00,28.4,26.4,30.03,North,360,6.0,8.0,92,0.00,,---,0.00,VWS V14.01,2013-03-27 07:24:00,
2013-03-27 03:29:00,28.5,26.5,30.04,NNE,17,8.0,10.0,92,0.00,,---,0.00,VWS V14.01,2013-03-27 07:29:00,
2013-03-27 03:34:00,28.5,26.5,30.03,NNE,26,2.0,6.0,92,0.00,,---,0.00,VWS V14.01,2013-03-27 07:34:00,
2013-03-27 03:39:00,28.6,26.3,30.03,ENE,67,2.0,10.0,91,0.00,,---,0.00,VWS V14.01,2013-03-27 07:39:00,
2013-03-27 03:44:00,28.6,26.3,30.03,NW,315,7.0,10.0,91,0.00,,---,0.00,VWS V14.01,2013-03-27 07:44:00,
2013-03-27 03:49:00,28.5,26.2,30.03,North,350,3.0,10.0,91,0.00,,---,0.00,VWS V14.01,2013-03-27 07:49:00,
2013-03-27 03:54:00,28.4,26.1,30.03,NNW,348,5.0,9.0,91,0.00,,---,0.00,VWS V14.01,2013-03-27 07:54:00,
2013-03-27 03:59:00,28.4,26.1,30.03,North,355,5.0,9.0,91,0.00,,---,0.00,VWS V14.01,2013-03-27 07:59:00,
2013-03-27 04:04:00,28.3,26.0,30.03,NW,309,3.0,8.0,91,0.00,,---,0.00,VWS V14.01,2013-03-27 08:04:00,
2013-03-27 04:09:00,28.3,25.8,30.03,NW,317,4.0,8.0,90,0.00,,---,0.00,VWS V14.01,2013-03-27 08:09:00,
2013-03-27 04:14:00,28.1,25.5,30.04,NW,320,6.0,8.0,90,0.00,,---,0.00,VWS V14.01,2013-03-27 08:14:00,
2013-03-27 04:19:00,27.9,25.4,30.04,NNW,347,4.0,12.0,90,0.00,,---,0.00,VWS V14.01,2013-03-27 08:19:00,
2013-03-27 04:24:00,27.8,25.2,30.03,NNW,344,1.0,7.0,90,0.00,,---,0.00,VWS V14.01,2013-03-27 08:24:00,
2013-03-27 04:29:00,27.7,25.2,30.03,North,355,5.0,8.0,90,0.00,,---,0.00,VWS V14.01,2013-03-27 08:29:00,
2013-03-27 04:34:00,27.6,25.1,30.03,NNW,343,4.0,8.0,90,0.00,,---,0.00,VWS V14.01,2013-03-27 08:34:00,
2013-03-27 04:40:00,27.5,25.0,30.03,North,5,2.0,8.0,90,0.00,,---,0.00,VWS V14.01,2013-03-27 08:40:00,
2013-03-27 04:45:00,27.5,24.7,30.03,NNW,331,2.0,6.0,89,0.00,,---,0.00,VWS V14.01,2013-03-27 08:45:00,
2013-03-27 04:50:00,27.3,24.8,30.03,NNW,344,4.0,7.0,90,0.00,,---,0.00,VWS V14.01,2013-03-27 08:50:00,
2013-03-27 04:55:00,27.1,24.6,30.03,WSW,242,2.0,7.0,90,0.00,,---,0.00,VWS V14.01,2013-03-27 08:55:00,
2013-03-27 05:00:00,27.1,24.3,30.03,North,9,0.0,8.0,89,0.00,,---,0.00,VWS V14.01,2013-03-27 09:00:00,
2013-03-27 05:05:00,27.0,24.5,30.03,NNW,342,5.0,8.0,90,0.00,,---,0.00,VWS V14.01,2013-03-27 09:05:00,
2013-03-27 05:10:00,27.1,24.3,30.03,NW,323,4.0,12.0,89,0.00,,---,0.00,VWS V14.01,2013-03-27 09:10:00,
2013-03-27 05:15:00,27.1,24.3,30.03,North,11,4.0,8.0,89,0.00,,---,0.00,VWS V14.01,2013-03-27 09:15:00,
2013-03-27 05:20:00,27.1,24.3,30.03,NNW,345,1.0,8.0,89,0.00,,---,0.00,VWS V14.01,2013-03-27 09:20:00,
2013-03-27 05:25:00,27.1,24.0,30.03,North,11,2.0,10.0,88,0.00,,---,0.00,VWS V14.01,2013-03-27 09:25:00,
2013-03-27 05:30:00,27.0,23.9,30.03,NNW,336,4.0,11.0,88,0.00,,---,0.00,VWS V14.01,2013-03-27 09:30:00,
2013-03-27 05:35:00,27.0,23.9,30.03,North,349,3.0,8.0,88,0.00,,---,0.00,VWS V14.01,2013-03-27 09:35:00,
2013-03-27 05:40:00,26.9,24.1,30.04,NE,44,0.0,8.0,89,0.00,,---,0.00,VWS V14.01,2013-03-27 09:40:00,
2013-03-27 05:45:00,26.9,24.1,30.04,NNW,342,3.0,7.0,89,0.00,,---,0.00,VWS V14.01,2013-03-27 09:45:00,
2013-03-27 05:51:00,26.8,24.0,30.05,NW,318,2.0,11.0,89,0.00,,---,0.00,VWS V14.01,2013-03-27 09:51:00,
2013-03-27 05:56:00,26.7,23.9,30.04,NNW,333,5.0,10.0,89,0.00,,---,0.00,VWS V14.01,2013-03-27 09:56:00,
2013-03-27 06:01:00,26.7,23.6,30.04,North,5,7.0,12.0,88,0.00,,---,0.00,VWS V14.01,2013-03-27 10:01:00,
2013-03-27 06:06:00,26.7,23.6,30.04,South,179,2.0,11.0,88,0.00,,---,0.00,VWS V14.01,2013-03-27 10:06:00,
2013-03-27 06:11:00,26.7,23.6,30.04,NE,38,6.0,9.0,88,0.00,,---,0.00,VWS V14.01,2013-03-27 10:11:00,
2013-03-27 06:16:00,26.7,23.4,30.05,NNW,333,6.0,10.0,87,0.00,,---,0.00,VWS V14.01,2013-03-27 10:16:00,
2013-03-27 06:21:00,26.7,23.4,30.05,NNW,332,6.0,10.0,87,0.00,,---,0.00,VWS V14.01,2013-03-27 10:21:00,
2013-03-27 06:27:00,26.7,23.4,30.06,North,355,6.0,10.0,87,0.00,,---,0.00,VWS V14.01,2013-03-27 10:27:00,
2013-03-27 06:32:00,26.6,23.3,30.06,North,5,1.0,7.0,87,0.00,,---,0.00,VWS V14.01,2013-03-27 10:32:00,
2013-03-27 06:37:00,26.5,23.2,30.06,NNW,338,5.0,8.0,87,0.00,,---,0.00,VWS V14.01,2013-03-27 10:37:00,
2013-03-27 06:42:00,26.4,23.1,30.06,NNW,331,6.0,8.0,87,0.00,,---,0.00,VWS V14.01,2013-03-27 10:42:00,
2013-03-27 06:47:00,26.3,23.0,30.06,North,355,9.0,9.0,87,0.00,,---,0.00,VWS V14.01,2013-03-27 10:47:00,
2013-03-27 06:52:00,26.4,23.1,30.06,North,349,3.0,6.0,87,0.00,,---,0.00,VWS V14.01,2013-03-27 10:52:00,
2013-03-27 06:57:00,26.5,23.2,30.06,NNW,336,8.0,10.0,87,0.00,,---,0.00,VWS V14.01,2013-03-27 10:57:00,
2013-03-27 07:02:00,26.5,23.2,30.06,NNW,333,5.0,6.0,87,0.00,,---,0.00,VWS V14.01,2013-03-27 11:02:00,
2013-03-27 07:07:00,26.5,23.2,30.06,NNW,333,7.0,9.0,87,0.00,,---,0.00,VWS V14.01,2013-03-27 11:07:00,
2013-03-27 07:12:00,26.4,23.1,30.07,NNW,342,8.0,9.0,87,0.00,,---,0.00,VWS V14.01,2013-03-27 11:12:00,
2013-03-27 07:17:00,26.5,23.2,30.07,NE,38,6.0,10.0,87,0.00,,---,0.00,VWS V14.01,2013-03-27 11:17:00,
2013-03-27 07:23:00,26.6,23.3,30.07,NNW,345,6.0,10.0,87,0.00,,---,0.00,VWS V14.01,2013-03-27 11:23:00,
2013-03-27 07:28:00,26.7,23.4,30.07,NNW,335,4.0,10.0,87,0.00,,---,0.00,VWS V14.01,2013-03-27 11:28:00,
2013-03-27 07:33:00,26.7,23.4,30.07,NNW,328,2.0,10.0,87,0.00,,---,0.00,VWS V14.01,2013-03-27 11:33:00,
2013-03-27 07:38:00,27.0,23.6,30.07,North,355,9.0,10.0,87,0.00,,---,0.00,VWS V14.01,2013-03-27 11:38:00,
2013-03-27 07:43:00,27.3,24.0,30.08,NNE,17,3.0,8.0,87,0.00,,---,0.00,VWS V14.01,2013-03-27 11:43:00,
2013-03-27 07:48:00,27.7,24.3,30.08,North,360,3.0,8.0,87,0.00,,---,0.00,VWS V14.01,2013-03-27 11:48:00,
2013-03-27 07:53:00,27.9,24.3,30.08,NNW,339,4.0,9.0,86,0.00,,---,0.00,VWS V14.01,2013-03-27 11:53:00,
2013-03-27 07:58:00,28.0,24.6,30.09,North,360,4.0,9.0,87,0.00,,---,0.00,VWS V14.01,2013-03-27 11:58:00,
2013-03-27 08:03:00,28.0,24.6,30.09,North,350,2.0,7.0,87,0.00,,---,0.00,VWS V14.01,2013-03-27 12:03:00,
2013-03-27 08:08:00,28.2,24.8,30.09,NNW,332,4.0,9.0,87,0.00,,---,0.00,VWS V14.01,2013-03-27 12:08:00,
2013-03-27 08:13:00,28.4,24.8,30.09,NNE,15,3.0,6.0,86,0.00,,---,0.00,VWS V14.01,2013-03-27 12:13:00,
2013-03-27 08:18:00,28.5,25.1,30.09,North,360,3.0,7.0,87,0.00,,---,0.00,VWS V14.01,2013-03-27 12:18:00,
2013-03-27 08:23:00,28.7,25.3,30.09,NNE,31,2.0,7.0,87,0.00,,---,0.00,VWS V14.01,2013-03-27 12:23:00,
2013-03-27 08:28:00,28.7,25.3,30.09,NNE,12,2.0,9.0,87,0.00,,---,0.00,VWS V14.01,2013-03-27 12:28:00,
2013-03-27 08:33:00,28.8,25.4,30.10,NNW,338,1.0,6.0,87,0.00,,---,0.00,VWS V14.01,2013-03-27 12:33:00,
2013-03-27 08:38:00,28.7,25.3,30.10,North,350,3.0,6.0,87,0.00,,---,0.00,VWS V14.01,2013-03-27 12:38:00,
2013-03-27 08:44:00,28.7,25.3,30.10,NW,318,3.0,7.0,87,0.00,,---,0.00,VWS V14.01,2013-03-27 12:44:00,
2013-03-27 08:49:00,28.7,25.3,30.11,NNE,30,8.0,8.0,87,0.00,,---,0.00,VWS V14.01,2013-03-27 12:49:00,
2013-03-27 08:54:00,28.7,25.3,30.11,West,264,3.0,5.0,87,0.00,,---,0.00,VWS V14.01,2013-03-27 12:54:00,
2013-03-27 08:59:00,28.9,25.5,30.11,NNW,347,1.0,7.0,87,0.00,,---,0.00,VWS V14.01,2013-03-27 12:59:00,
2013-03-27 09:04:00,29.0,25.6,30.11,NNW,347,4.0,8.0,87,0.00,,---,0.00,VWS V14.01,2013-03-27 13:04:00,
2013-03-27 09:09:00,29.2,25.8,30.11,SSW,196,2.0,8.0,87,0.00,,---,0.00,VWS V14.01,2013-03-27 13:09:00,
2013-03-27 09:14:00,29.4,26.0,30.11,NNW,340,4.0,6.0,87,0.00,,---,0.00,VWS V14.01,2013-03-27 13:14:00,
2013-03-27 09:19:00,29.7,26.3,30.11,NNE,26,7.0,7.0,87,0.00,,---,0.00,VWS V14.01,2013-03-27 13:19:00,
2013-03-27 09:24:00,30.2,26.8,30.11,NNW,333,0.0,9.0,87,0.00,,---,0.00,VWS V14.01,2013-03-27 13:24:00,
2013-03-27 09:29:00,30.7,27.0,30.11,ENE,62,1.0,9.0,86,0.00,,---,0.00,VWS V14.01,2013-03-27 13:29:00,
2013-03-27 09:34:00,30.8,27.1,30.11,NNW,347,2.0,6.0,86,0.00,,---,0.00,VWS V14.01,2013-03-27 13:34:00,
2013-03-27 09:40:00,30.8,27.4,30.11,North,360,4.0,10.0,87,0.00,,---,0.00,VWS V14.01,2013-03-27 13:40:00,
2013-03-27 09:45:00,30.9,27.2,30.11,NNW,339,6.0,11.0,86,0.00,,---,0.00,VWS V14.01,2013-03-27 13:45:00,
2013-03-27 09:50:00,31.2,27.5,30.11,NNW,346,4.0,11.0,86,0.00,,---,0.00,VWS V14.01,2013-03-27 13:50:00,
2013-03-27 09:55:00,31.4,27.4,30.10,NE,51,5.0,9.0,85,0.00,,---,0.00,VWS V14.01,2013-03-27 13:55:00,
2013-03-27 10:00:00,31.3,27.3,30.11,North,350,5.0,11.0,85,0.00,,---,0.00,VWS V14.01,2013-03-27 14:00:00,
2013-03-27 10:05:00,31.4,27.7,30.11,North,5,2.0,6.0,86,0.00,,---,0.00,VWS V14.01,2013-03-27 14:05:00,
2013-03-27 10:10:00,31.5,27.5,30.10,North,355,4.0,8.0,85,0.00,,---,0.00,VWS V14.01,2013-03-27 14:10:00,
2013-03-27 10:15:00,31.7,27.7,30.10,NE,51,7.0,9.0,85,0.00,,---,0.00,VWS V14.01,2013-03-27 14:15:00,
2013-03-27 10:20:00,31.7,27.4,30.10,NNW,338,6.0,12.0,84,0.00,,---,0.00,VWS V14.01,2013-03-27 14:20:00,
2013-03-27 10:25:00,31.9,27.3,30.11,NNE,16,7.0,10.0,83,0.00,,---,0.00,VWS V14.01,2013-03-27 14:25:00,
2013-03-27 10:30:00,31.9,27.6,30.11,NE,44,4.0,10.0,84,0.00,,---,0.00,VWS V14.01,2013-03-27 14:30:00,
2013-03-27 10:35:00,32.0,27.7,30.11,North,355,7.0,9.0,84,0.00,,---,0.00,VWS V14.01,2013-03-27 14:35:00,
2013-03-27 10:40:00,32.4,27.8,30.11,NW,315,3.0,10.0,83,0.00,,---,0.00,VWS V14.01,2013-03-27 14:40:00,
2013-03-27 10:45:00,32.5,27.9,30.11,ENE,61,3.0,10.0,83,0.00,,---,0.00,VWS V14.01,2013-03-27 14:45:00,
2013-03-27 10:50:00,32.7,27.8,30.10,North,9,6.0,11.0,82,0.00,,---,0.00,VWS V14.01,2013-03-27 14:50:00,
2013-03-27 10:55:00,33.2,28.6,30.10,North,360,3.0,9.0,83,0.00,,---,0.00,VWS V14.01,2013-03-27 14:55:00,
2013-03-27 11:01:00,33.2,28.0,30.10,North,355,5.0,10.0,81,0.00,,---,0.00,VWS V14.01,2013-03-27 15:01:00,
2013-03-27 11:06:00,33.2,28.3,30.11,NE,40,2.0,8.0,82,0.00,,---,0.00,VWS V14.01,2013-03-27 15:06:00,
2013-03-27 11:11:00,33.3,28.4,30.11,NE,34,3.0,5.0,82,0.00,,---,0.00,VWS V14.01,2013-03-27 15:11:00,
2013-03-27 11:17:00,33.2,27.7,30.10,NNE,15,3.0,15.0,80,0.00,,---,0.00,VWS V14.01,2013-03-27 15:17:00,
2013-03-27 11:22:00,32.8,27.6,30.10,WNW,289,3.0,5.0,81,0.00,,---,0.00,VWS V14.01,2013-03-27 15:22:00,
2013-03-27 11:27:00,33.0,28.4,30.11,North,351,6.0,8.0,83,0.00,,---,0.00,VWS V14.01,2013-03-27 15:27:00,
2013-03-27 11:32:00,32.8,28.5,30.11,North,5,4.0,4.0,84,0.00,,---,0.00,VWS V14.01,2013-03-27 15:32:00,
2013-03-27 11:37:00,32.6,28.6,30.11,NNE,17,2.0,7.0,85,0.00,,---,0.00,VWS V14.01,2013-03-27 15:37:00,
2013-03-27 11:42:00,32.3,28.9,30.11,NNE,13,5.0,5.0,87,0.00,,---,0.00,VWS V14.01,2013-03-27 15:42:00,
2013-03-27 11:47:00,32.4,29.2,30.11,North,360,2.0,7.0,88,0.00,,---,0.00,VWS V14.01,2013-03-27 15:47:00,
2013-03-27 11:52:00,32.4,29.2,30.11,NNW,348,5.0,8.0,88,0.00,,---,0.00,VWS V14.01,2013-03-27 15:52:00,
2013-03-27 11:57:00,32.3,29.1,30.11,NNW,341,6.0,8.0,88,0.00,,---,0.00,VWS V14.01,2013-03-27 15:57:00,
2013-03-27 12:02:00,32.9,29.7,30.11,NE,34,3.0,6.0,88,0.00,,---,0.00,VWS V14.01,2013-03-27 16:02:00,
2013-03-27 12:07:00,33.3,29.3,30.11,WNW,300,4.0,7.0,85,0.00,,---,0.00,VWS V14.01,2013-03-27 16:07:00,
2013-03-27 12:12:00,33.0,28.4,30.11,North,5,3.0,8.0,83,0.00,,---,0.00,VWS V14.01,2013-03-27 16:12:00,
2013-03-27 12:17:00,32.5,27.6,30.11,NNE,12,3.0,9.0,82,0.00,,---,0.00,VWS V14.01,2013-03-27 16:17:00,
2013-03-27 12:22:00,32.1,27.8,30.11,North,351,5.0,8.0,84,0.00,,---,0.00,VWS V14.01,2013-03-27 16:22:00,
2013-03-27 12:27:00,32.0,27.7,30.11,NNE,17,3.0,8.0,84,0.00,,---,0.00,VWS V14.01,2013-03-27 16:27:00,
2013-03-27 12:33:00,31.9,27.3,30.11,NNW,344,6.0,8.0,83,0.00,,---,0.00,VWS V14.01,2013-03-27 16:33:00,
2013-03-27 12:38:00,32.1,28.1,30.11,NNW,348,4.0,8.0,85,0.00,,---,0.00,VWS V14.01,2013-03-27 16:38:00,
2013-03-27 12:43:00,32.6,28.3,30.11,NNW,348,2.0,6.0,84,0.00,,---,0.00,VWS V14.01,2013-03-27 16:43:00,
2013-03-27 12:48:00,33.0,28.4,30.11,North,351,4.0,7.0,83,0.00,,---,0.00,VWS V14.01,2013-03-27 16:48:00,
2013-03-27 12:53:00,32.8,27.9,30.12,NNW,346,3.0,8.0,82,0.00,,---,0.00,VWS V14.01,2013-03-27 16:53:00,
2013-03-27 12:58:00,32.6,28.0,30.11,NNE,32,2.0,8.0,83,0.00,,---,0.00,VWS V14.01,2013-03-27 16:58:00,
2013-03-27 13:03:00,32.6,28.0,30.12,NNE,30,2.0,8.0,83,0.00,,---,0.00,VWS V14.01,2013-03-27 17:03:00,
2013-03-27 13:08:00,33.4,28.8,30.11,North,355,7.0,9.0,83,0.00,,---,0.00,VWS V14.01,2013-03-27 17:08:00,
2013-03-27 13:13:00,34.2,29.0,30.11,NNE,33,0.0,6.0,81,0.00,,---,0.00,VWS V14.01,2013-03-27 17:13:00,
2013-03-27 13:18:00,34.2,28.7,30.12,North,360,4.0,7.0,80,0.00,,---,0.00,VWS V14.01,2013-03-27 17:18:00,
2013-03-27 13:23:00,33.6,28.1,30.12,NNW,338,5.0,9.0,80,0.00,,---,0.00,VWS V14.01,2013-03-27 17:23:00,
2013-03-27 13:28:00,33.5,28.6,30.12,NNW,348,3.0,9.0,82,0.00,,---,0.00,VWS V14.01,2013-03-27 17:28:00,
2013-03-27 13:33:00,33.7,28.5,30.12,NNW,340,4.0,8.0,81,0.00,,---,0.00,VWS V14.01,2013-03-27 17:33:00,
2013-03-27 13:38:00,33.9,28.7,30.11,NNW,339,2.0,9.0,81,0.00,,---,0.00,VWS V14.01,2013-03-27 17:38:00,
2013-03-27 13:43:00,34.0,28.8,30.12,South,179,1.0,9.0,81,0.00,,---,0.00,VWS V14.01,2013-03-27 17:43:00,
2013-03-27 13:49:00,34.2,29.0,30.12,North,360,5.0,9.0,81,0.00,,---,0.00,VWS V14.01,2013-03-27 17:49:00,
2013-03-27 13:54:00,33.9,28.1,30.12,NNW,340,4.0,8.0,79,0.00,,---,0.00,VWS V14.01,2013-03-27 17:54:00,
2013-03-27 13:59:00,33.7,28.5,30.12,East,82,2.0,8.0,81,0.00,,---,0.00,VWS V14.01,2013-03-27 17:59:00,
2013-03-27 14:04:00,33.7,28.2,30.11,NNW,348,2.0,9.0,80,0.00,,---,0.00,VWS V14.01,2013-03-27 18:04:00,
2013-03-27 14:09:00,33.7,28.2,30.11,NNE,14,6.0,10.0,80,0.00,,---,0.00,VWS V14.01,2013-03-27 18:09:00,
2013-03-27 14:14:00,33.7,28.2,30.11,North,5,2.0,8.0,80,0.00,,---,0.00,VWS V14.01,2013-03-27 18:14:00,
2013-03-27 14:19:00,34.1,28.3,30.11,North,9,4.0,9.0,79,0.00,,---,0.00,VWS V14.01,2013-03-27 18:19:00,
2013-03-27 14:24:00,34.4,28.3,30.11,North,10,4.0,11.0,78,0.00,,---,0.00,VWS V14.01,2013-03-27 18:24:00,
2013-03-27 14:29:00,34.7,28.2,30.11,ENE,78,4.0,11.0,77,0.00,,---,0.00,VWS V14.01,2013-03-27 18:29:00,
2013-03-27 14:34:00,34.4,28.3,30.11,NE,42,3.0,10.0,78,0.00,,---,0.00,VWS V14.01,2013-03-27 18:34:00,
2013-03-27 14:39:00,34.7,28.5,30.11,North,5,4.0,10.0,78,0.00,,---,0.00,VWS V14.01,2013-03-27 18:39:00,
2013-03-27 14:45:00,35.0,28.5,30.11,NNW,346,9.0,11.0,77,0.00,,---,0.00,VWS V14.01,2013-03-27 18:45:00,
2013-03-27 14:50:00,34.8,28.0,30.11,NNW,340,5.0,13.0,76,0.00,,---,0.00,VWS V14.01,2013-03-27 18:50:00,
2013-03-27 14:55:00,34.4,28.0,30.11,NNE,32,5.0,9.0,77,0.00,,---,0.00,VWS V14.01,2013-03-27 18:55:00,
2013-03-27 15:00:00,34.0,27.6,30.11,NNW,341,6.0,12.0,77,0.00,,---,0.00,VWS V14.01,2013-03-27 19:00:00,
2013-03-27 15:05:00,33.7,27.3,30.11,North,5,3.0,10.0,77,0.00,,---,0.00,VWS V14.01,2013-03-27 19:05:00,
2013-03-27 15:10:00,33.8,28.0,30.11,North,360,4.0,13.0,79,0.00,,---,0.00,VWS V14.01,2013-03-27 19:10:00,
2013-03-27 15:15:00,34.2,27.8,30.11,NNW,339,6.0,8.0,77,0.00,,---,0.00,VWS V14.01,2013-03-27 19:15:00,
2013-03-27 15:20:00,33.9,27.8,30.11,NNE,26,3.0,9.0,78,0.00,,---,0.00,VWS V14.01,2013-03-27 19:20:00,
2013-03-27 15:25:00,33.5,28.0,30.11,North,360,4.0,17.0,80,0.00,,---,0.00,VWS V14.01,2013-03-27 19:25:00,
2013-03-27 15:30:00,33.3,28.7,30.12,NE,50,1.0,17.0,83,0.00,,---,0.00,VWS V14.01,2013-03-27 19:30:00,
2013-03-27 15:35:00,34.3,29.7,30.11,North,355,3.0,10.0,83,0.00,,---,0.00,VWS V14.01,2013-03-27 19:35:00,
2013-03-27 15:40:00,34.7,28.9,30.11,NNE,25,3.0,10.0,79,0.00,,---,0.00,VWS V14.01,2013-03-27 19:40:00,
2013-03-27 15:45:00,34.3,28.8,30.11,West,275,4.0,12.0,80,0.00,,---,0.00,VWS V14.01,2013-03-27 19:45:00,
2013-03-27 15:51:00,33.7,28.5,30.11,NNE,19,6.0,12.0,81,0.00,,---,0.00,VWS V14.01,2013-03-27 19:51:00,
2013-03-27 15:56:00,32.4,28.7,30.11,NNW,329,5.0,14.0,86,0.00,,---,0.00,VWS V14.01,2013-03-27 19:56:00,
2013-03-27 16:01:00,31.8,29.2,30.11,NNW,335,7.0,14.0,90,0.00,,---,0.00,VWS V14.01,2013-03-27 20:01:00,
2013-03-27 16:06:00,31.6,29.3,30.10,NNW,342,6.0,9.0,91,0.00,,---,0.00,VWS V14.01,2013-03-27 20:06:00,
2013-03-27 16:11:00,31.4,29.1,30.10,NNW,336,1.0,9.0,91,0.00,,---,0.00,VWS V14.01,2013-03-27 20:11:00,
2013-03-27 16:16:00,31.6,29.3,30.10,North,5,3.0,7.0,91,0.00,,---,0.00,VWS V14.01,2013-03-27 20:16:00,
2013-03-27 16:21:00,31.9,29.0,30.11,NNW,335,6.0,9.0,89,0.00,,---,0.00,VWS V14.01,2013-03-27 20:21:00,
2013-03-27 16:26:00,32.2,29.0,30.11,NNE,18,3.0,6.0,88,0.00,,---,0.00,VWS V14.01,2013-03-27 20:26:00,
2013-03-27 16:31:00,32.5,29.1,30.10,North,5,4.0,7.0,87,0.00,,---,0.00,VWS V14.01,2013-03-27 20:31:00,
2013-03-27 16:36:00,32.6,28.9,30.10,North,5,1.0,7.0,86,0.00,,---,0.00,VWS V14.01,2013-03-27 20:36:00,
2013-03-27 16:41:00,32.8,28.5,30.10,NE,40,2.0,4.0,84,0.00,,---,0.00,VWS V14.01,2013-03-27 20:41:00,
2013-03-27 16:47:00,32.4,28.4,30.10,NNW,337,6.0,9.0,85,0.00,,---,0.00,VWS V14.01,2013-03-27 20:47:00,
2013-03-27 16:52:00,32.1,28.7,30.11,NNE,15,4.0,7.0,87,0.00,,---,0.00,VWS V14.01,2013-03-27 20:52:00,
2013-03-27 16:57:00,32.1,28.4,30.11,NNE,30,4.0,8.0,86,0.00,,---,0.00,VWS V14.01,2013-03-27 20:57:00,
2013-03-27 17:02:00,32.3,28.6,30.11,North,355,3.0,5.0,86,0.00,,---,0.00,VWS V14.01,2013-03-27 21:02:00,
2013-03-27 17:07:00,32.4,28.4,30.11,NNW,345,2.0,8.0,85,0.00,,---,0.00,VWS V14.01,2013-03-27 21:07:00,
2013-03-27 17:12:00,32.5,28.2,30.11,North,355,4.0,7.0,84,0.00,,---,0.00,VWS V14.01,2013-03-27 21:12:00,
2013-03-27 17:17:00,32.6,28.0,30.10,East,86,6.0,8.0,83,0.00,,---,0.00,VWS V14.01,2013-03-27 21:17:00,
2013-03-27 17:22:00,32.9,27.7,30.10,North,5,8.0,8.0,81,0.00,,---,0.00,VWS V14.01,2013-03-27 21:22:00,
2013-03-27 17:27:00,33.0,27.2,30.10,NNW,346,4.0,11.0,79,0.00,,---,0.00,VWS V14.01,2013-03-27 21:27:00,
2013-03-27 17:32:00,33.1,27.0,30.10,NNW,342,4.0,7.0,78,0.00,,---,0.00,VWS V14.01,2013-03-27 21:32:00,
2013-03-27 17:37:00,33.0,26.9,30.10,North,11,6.0,8.0,78,0.00,,---,0.00,VWS V14.01,2013-03-27 21:37:00,
2013-03-27 17:43:00,33.1,27.0,30.11,North,350,6.0,9.0,78,0.00,,---,0.00,VWS V14.01,2013-03-27 21:43:00,
2013-03-27 17:48:00,33.1,27.0,30.11,NNW,340,4.0,10.0,78,0.00,,---,0.00,VWS V14.01,2013-03-27 21:48:00,
2013-03-27 17:53:00,33.1,27.3,30.11,North,360,8.0,9.0,79,0.00,,---,0.00,VWS V14.01,2013-03-27 21:53:00,
2013-03-27 17:58:00,32.9,27.7,30.11,North,349,6.0,16.0,81,0.00,,---,0.00,VWS V14.01,2013-03-27 21:58:00,
2013-03-27 18:03:00,31.7,28.6,30.11,NNE,13,6.0,10.0,88,0.00,,---,0.00,VWS V14.01,2013-03-27 22:03:00,
2013-03-27 18:08:00,31.0,28.7,30.11,NNW,333,3.0,10.0,91,0.00,,---,0.00,VWS V14.01,2013-03-27 22:08:00,
2013-03-27 18:13:00,30.8,28.5,30.11,NNE,13,3.0,9.0,91,0.00,,---,0.00,VWS V14.01,2013-03-27 22:13:00,
2013-03-27 18:18:00,31.0,28.7,30.11,NNW,346,2.0,9.0,91,0.00,,---,0.00,VWS V14.01,2013-03-27 22:18:00,
2013-03-27 18:23:00,31.6,29.0,30.11,North,5,3.0,7.0,90,0.00,,---,0.00,VWS V14.01,2013-03-27 22:23:00,
2013-03-27 18:28:00,32.2,29.0,30.11,East,81,3.0,7.0,88,0.00,,---,0.00,VWS V14.01,2013-03-27 22:28:00,
2013-03-27 18:33:00,32.3,28.6,30.11,NNW,328,3.0,7.0,86,0.00,,---,0.00,VWS V14.01,2013-03-27 22:33:00,
2013-03-27 18:38:00,32.3,28.0,30.11,NNW,343,4.0,9.0,84,0.00,,---,0.00,VWS V14.01,2013-03-27 22:38:00,
2013-03-27 18:43:00,32.2,27.9,30.11,NW,315,3.0,7.0,84,0.00,,---,0.00,VWS V14.01,2013-03-27 22:43:00,
2013-03-27 18:48:00,32.2,27.6,30.11,North,360,2.0,10.0,83,0.00,,---,0.00,VWS V14.01,2013-03-27 22:48:00,
2013-03-27 18:54:00,32.3,27.7,30.11,North,10,6.0,12.0,83,0.00,,---,0.00,VWS V14.01,2013-03-27 22:54:00,
2013-03-27 18:59:00,32.2,27.9,30.11,North,360,4.0,12.0,84,0.00,,---,0.00,VWS V14.01,2013-03-27 22:59:00,
2013-03-27 19:04:00,32.0,27.7,30.11,NW,316,4.0,10.0,84,0.00,,---,0.00,VWS V14.01,2013-03-27 23:04:00,
2013-03-27 19:09:00,31.9,27.6,30.11,NNE,31,3.0,10.0,84,0.00,,---,0.00,VWS V14.01,2013-03-27 23:09:00,
2013-03-27 19:14:00,31.8,27.5,30.11,NNW,344,6.0,7.0,84,0.00,,---,0.00,VWS V14.01,2013-03-27 23:14:00,
2013-03-27 19:19:00,31.7,27.1,30.12,North,5,3.0,13.0,83,0.00,,---,0.00,VWS V14.01,2013-03-27 23:19:00,
2013-03-27 19:24:00,31.6,27.3,30.12,NNW,348,2.0,8.0,84,0.00,,---,0.00,VWS V14.01,2013-03-27 23:24:00,
2013-03-27 19:29:00,31.5,27.2,30.12,NNW,336,3.0,9.0,84,0.00,,---,0.00,VWS V14.01,2013-03-27 23:29:00,
2013-03-27 19:34:00,31.5,27.5,30.12,NNE,32,2.0,8.0,85,0.00,,---,0.00,VWS V14.01,2013-03-27 23:34:00,
2013-03-27 19:39:00,31.4,27.1,30.13,NNW,329,4.0,9.0,84,0.00,,---,0.00,VWS V14.01,2013-03-27 23:39:00,
2013-03-27 19:44:00,31.3,27.0,30.13,NNE,26,4.0,12.0,84,0.00,,---,0.00,VWS V14.01,2013-03-27 23:44:00,
2013-03-27 19:50:00,31.3,27.0,30.13,NNW,345,7.0,12.0,84,0.00,,---,0.00,VWS V14.01,2013-03-27 23:50:00,
2013-03-27 19:55:00,31.3,27.0,30.13,ENE,57,3.0,9.0,84,0.00,,---,0.00,VWS V14.01,2013-03-27 23:55:00,
2013-03-27 20:00:00,31.2,26.9,30.13,NNW,344,2.0,10.0,84,0.00,,---,0.00,VWS V14.01,2013-03-28 00:00:00,
2013-03-27 20:05:00,31.2,26.6,30.13,North,355,4.0,10.0,83,0.00,,---,0.00,VWS V14.01,2013-03-28 00:05:00,
2013-03-27 20:10:00,31.0,26.7,30.14,North,360,3.0,10.0,84,0.00,,---,0.00,VWS V14.01,2013-03-28 00:10:00,
2013-03-27 20:15:00,30.8,26.5,30.14,NNE,14,4.0,8.0,84,0.00,,---,0.00,VWS V14.01,2013-03-28 00:15:00,
2013-03-27 20:20:00,30.8,26.5,30.14,NNW,338,5.0,8.0,84,0.00,,---,0.00,VWS V14.01,2013-03-28 00:20:00,
2013-03-27 20:25:00,30.7,26.7,30.14,North,355,5.0,8.0,85,0.00,,---,0.00,VWS V14.01,2013-03-28 00:25:00,
2013-03-27 20:30:00,30.7,26.5,30.14,NNW,343,6.0,10.0,84,0.00,,---,0.00,VWS V14.01,2013-03-28 00:30:00,
2013-03-27 20:35:00,30.6,26.6,30.14,NNW,333,3.0,9.0,85,0.00,,---,0.00,VWS V14.01,2013-03-28 00:35:00,
2013-03-27 20:40:00,30.4,26.4,30.14,North,355,4.0,10.0,85,0.00,,---,0.00,VWS V14.01,2013-03-28 00:40:00,
2013-03-27 20:45:00,30.4,26.4,30.14,North,355,7.0,9.0,85,0.00,,---,0.00,VWS V14.01,2013-03-28 00:45:00,
2013-03-27 20:51:00,30.4,26.4,30.14,North,5,6.0,10.0,85,0.00,,---,0.00,VWS V14.01,2013-03-28 00:51:00,
2013-03-27 20:56:00,30.3,26.6,30.14,NNW,339,6.0,10.0,86,0.00,,---,0.00,VWS V14.01,2013-03-28 00:56:00,
2013-03-27 21:01:00,30.2,26.5,30.14,North,355,5.0,11.0,86,0.00,,---,0.00,VWS V14.01,2013-03-28 01:01:00,
2013-03-27 21:06:00,30.1,26.4,30.15,North,5,4.0,9.0,86,0.00,,---,0.00,VWS V14.01,2013-03-28 01:06:00,
2013-03-27 21:12:00,30.0,26.6,30.15,North,351,5.0,8.0,87,0.00,,---,0.00,VWS V14.01,2013-03-28 01:12:00,
2013-03-27 21:17:00,29.9,26.5,30.15,NE,34,6.0,10.0,87,0.00,,---,0.00,VWS V14.01,2013-03-28 01:17:00,
2013-03-27 21:22:00,29.9,26.2,30.15,North,5,8.0,9.0,86,0.00,,---,0.00,VWS V14.01,2013-03-28 01:22:00,
2013-03-27 21:27:00,29.9,26.2,30.15,North,360,6.0,10.0,86,0.00,,---,0.00,VWS V14.01,2013-03-28 01:27:00,
2013-03-27 21:32:00,29.8,26.1,30.15,North,355,7.0,7.0,86,0.00,,---,0.00,VWS V14.01,2013-03-28 01:32:00,
2013-03-27 21:37:00,29.9,26.2,30.16,NE,44,4.0,9.0,86,0.00,,---,0.00,VWS V14.01,2013-03-28 01:37:00,
2013-03-27 21:42:00,29.9,26.0,30.16,North,351,6.0,7.0,85,0.00,,---,0.00,VWS V14.01,2013-03-28 01:42:00,
2013-03-27 21:47:00,29.9,26.0,30.15,North,355,5.0,8.0,85,0.00,,---,0.00,VWS V14.01,2013-03-28 01:47:00,
2013-03-27 21:52:00,29.9,26.0,30.15,North,351,7.0,9.0,85,0.00,,---,0.00,VWS V14.01,2013-03-28 01:52:00,
2013-03-27 21:57:00,30.0,26.0,30.15,North,5,4.0,10.0,85,0.00,,---,0.00,VWS V14.01,2013-03-28 01:57:00,
2013-03-27 22:02:00,29.9,25.7,30.15,NNE,24,5.0,9.0,84,0.00,,---,0.00,VWS V14.01,2013-03-28 02:02:00,
2013-03-27 22:07:00,29.8,25.6,30.15,NE,37,4.0,10.0,84,0.00,,---,0.00,VWS V14.01,2013-03-28 02:07:00,
2013-03-27 22:13:00,29.8,25.6,30.15,NNW,348,5.0,9.0,84,0.00,,---,0.00,VWS V14.01,2013-03-28 02:13:00,
2013-03-27 22:18:00,29.8,25.6,30.15,NNW,334,7.0,14.0,84,0.00,,---,0.00,VWS V14.01,2013-03-28 02:18:00,
2013-03-27 22:23:00,30.1,25.9,30.15,North,5,3.0,10.0,84,0.00,,---,0.00,VWS V14.01,2013-03-28 02:23:00,
2013-03-27 22:28:00,29.9,25.4,30.14,North,360,9.0,11.0,83,0.00,,---,0.00,VWS V14.01,2013-03-28 02:28:00,
2013-03-27 22:33:00,30.0,25.5,30.14,NE,34,5.0,11.0,83,0.00,,---,0.00,VWS V14.01,2013-03-28 02:33:00,
2013-03-27 22:38:00,29.9,25.4,30.14,North,360,8.0,11.0,83,0.00,,---,0.00,VWS V14.01,2013-03-28 02:38:00,
2013-03-27 22:43:00,29.8,25.6,30.14,NNW,342,10.0,11.0,84,0.00,,---,0.00,VWS V14.01,2013-03-28 02:43:00,
2013-03-27 22:48:00,29.8,25.6,30.14,NNW,342,8.0,11.0,84,0.00,,---,0.00,VWS V14.01,2013-03-28 02:48:00,
2013-03-27 22:53:00,29.9,25.7,30.14,NNW,342,6.0,9.0,84,0.00,,---,0.00,VWS V14.01,2013-03-28 02:53:00,
2013-03-27 22:58:00,29.9,25.4,30.14,NNW,340,6.0,11.0,83,0.00,,---,0.00,VWS V14.01,2013-03-28 02:58:00,
2013-03-27 23:03:00,30.0,25.5,30.14,NNW,329,5.0,9.0,83,0.00,,---,0.00,VWS V14.01,2013-03-28 03:03:00,
2013-03-27 23:08:00,30.0,25.5,30.14,NNE,17,5.0,11.0,83,0.00,,---,0.00,VWS V14.01,2013-03-28 03:08:00,
2013-03-27 23:13:00,30.1,25.6,30.14,NNE,15,4.0,16.0,83,0.00,,---,0.00,VWS V14.01,2013-03-28 03:13:00,
2013-03-27 23:18:00,30.0,25.5,30.14,NW,309,4.0,16.0,83,0.00,,---,0.00,VWS V14.01,2013-03-28 03:18:00,
2013-03-27 23:23:00,30.0,25.5,30.14,NE,45,7.0,9.0,83,0.00,,---,0.00,VWS V14.01,2013-03-28 03:23:00,
2013-03-27 23:28:00,29.9,25.4,30.14,ENE,69,3.0,9.0,83,0.00,,---,0.00,VWS V14.01,2013-03-28 03:28:00,
2013-03-27 23:34:00,29.9,25.4,30.14,North,355,3.0,8.0,83,0.00,,---,0.00,VWS V14.01,2013-03-28 03:34:00,
2013-03-27 23:39:00,29.9,25.4,30.14,NNW,335,4.0,10.0,83,0.00,,---,0.00,VWS V14.01,2013-03-28 03:39:00,
2013-03-27 23:44:00,29.9,25.4,30.14,NNW,344,5.0,10.0,83,0.00,,---,0.00,VWS V14.01,2013-03-28 03:44:00,
2013-03-27 23:49:00,30.0,25.5,30.14,NNW,333,6.0,10.0,83,0.00,,---,0.00,VWS V14.01,2013-03-28 03:49:00,
2013-03-27 23:54:00,29.9,25.4,30.14,ENE,65,1.0,9.0,83,0.00,,---,0.00,VWS V14.01,2013-03-28 03:54:00,
2013-03-27 23:59:00,29.9,25.4,30.14,NW,323,3.0,10.0,83,0.00,,---,0.00,VWS V14.01,2013-03-28 03:59:00,